TimePDT,TemperatureF,Dew PointF,Humidity,Sea Level PressureIn,VisibilityMPH,Wind Direction,Wind SpeedMPH,Gust SpeedMPH,PrecipitationIn,Events,Conditions,WindDirDegrees,DateUTC
12:53 AM,54.0,46.9,77,29.88,10.0,Calm,Calm,-,N/A,,Clear,0,2013-07-04 07:53:00
1:53 AM,53.1,46.9,80,29.87,10.0,Calm,Calm,-,N/A,,Clear,0,2013-07-04 08:53:00
2:53 AM,50.0,45.0,83,29.88,10.0,Calm,Calm,-,N/A,,Clear,0,2013-07-04 09:53:00
3:53 AM,48.9,45.0,86,29.88,10.0,Calm,Calm,-,N/A,,Clear,0,2013-07-04 10:53:00
4:53 AM,55.9,46.0,69,29.88,10.0,Calm,Calm,-,N/A,,Clear,0,2013-07-04 11:53:00
5:53 AM,60.1,46.9,62,29.88,10.0,South,9.2,-,N/A,,Clear,170,2013-07-04 12:53:00
6:53 AM,63.0,46.9,56,29.90,10.0,South,9.2,-,N/A,,Clear,170,2013-07-04 13:53:00
7:53 AM,64.9,46.9,52,29.91,10.0,South,11.5,-,N/A,,Clear,170,2013-07-04 14:53:00
8:53 AM,68.0,46.0,45,29.92,10.0,South,11.5,-,N/A,,Clear,180,2013-07-04 15:53:00
9:53 AM,70.0,46.0,42,29.92,10.0,South,10.4,19.6,N/A,,Clear,170,2013-07-04 16:53:00
10:53 AM,73.9,46.9,38,29.91,10.0,South,6.9,-,N/A,,Clear,190,2013-07-04 17:53:00
11:53 AM,77.0,46.0,33,29.90,10.0,SSE,11.5,17.3,N/A,,Clear,160,2013-07-04 18:53:00
12:53 PM,79.0,48.0,34,29.90,10.0,SSW,13.8,20.7,N/A,,Clear,200,2013-07-04 19:53:00
1:53 PM,80.1,46.0,30,29.88,10.0,SSW,11.5,20.7,N/A,,Clear,200,2013-07-04 20:53:00
2:53 PM,82.0,44.1,26,29.86,10.0,SSW,11.5,23.0,N/A,,Clear,210,2013-07-04 21:53:00
3:53 PM,82.9,45.0,26,29.84,10.0,SSW,9.2,17.3,N/A,,Clear,200,2013-07-04 22:53:00
4:53 PM,82.9,45.0,26,29.81,10.0,South,10.4,-,N/A,,Clear,190,2013-07-04 23:53:00
5:53 PM,82.9,43.0,24,29.79,10.0,South,12.7,-,N/A,,Clear,190,2013-07-05 00:53:00
6:53 PM,82.0,43.0,25,29.78,10.0,South,10.4,-,N/A,,Clear,190,2013-07-05 01:53:00
7:53 PM,78.1,45.0,31,29.78,10.0,South,6.9,-,N/A,,Clear,180,2013-07-05 02:53:00
8:53 PM,69.1,48.0,47,29.78,10.0,South,4.6,-,N/A,,Clear,170,2013-07-05 03:53:00
9:53 PM,57.9,51.1,78,29.80,10.0,Calm,Calm,-,N/A,,Clear,0,2013-07-05 04:53:00
10:53 PM,55.9,46.9,72,29.80,10.0,Calm,Calm,-,N/A,,Clear,0,2013-07-05 05:53:00
11:53 PM,54.0,46.9,77,29.79,10.0,East,3.5,-,N/A,,Clear,80,2013-07-05 06:53:00